| time (UTC) | temp C | wind direction | speed KPH | gust KPH | rain 1hr cm | rain 24hr cm | rain mn cm | humidity % | barometer mb |
| 20260906124532 | 20 | 149 | 8.0 | 17.7 | 0.00 | 0.00 | 0.00 | 73 | 1020.7 |
| 20260906123035 | 20 | 113 | 8.0 | 14.5 | 0.00 | 0.00 | 0.00 | 73 | 1020.7 |
| 20260906121529 | 20 | 134 | 4.8 | 14.5 | 0.00 | 0.00 | 0.00 | 73 | 1020.6 |
| 20260906120027 | 20 | 128 | 3.2 | 11.3 | 0.00 | 0.00 | 0.00 | 73 | 1020.5 |
| 20260906114533 | 20 | 66 | 3.2 | 6.4 | 0.00 | 0.00 | 0.00 | 72 | 1020.3 |
| 20260906113038 | 20 | 141 | 3.2 | 8.0 | 0.00 | 0.00 | 0.00 | 72 | 1019.9 |
| 20260906111525 | 20 | 101 | 1.6 | 8.0 | 0.00 | 0.00 | 0.00 | 72 | 1019.6 |
| 20260906110021 | 20 | 122 | 1.6 | 9.7 | 0.00 | 0.00 | 0.00 | 72 | 1019.6 |
| 20260906104519 | 20 | 126 | 3.2 | 11.3 | 0.00 | 0.00 | 0.00 | 72 | 1019.5 |
| 20260906103019 | 20 | 117 | 4.8 | 9.7 | 0.00 | 0.00 | 0.00 | 72 | 1019.4 |
| 20260906101517 | 20 | 121 | 1.6 | 11.3 | 0.00 | 0.00 | 0.00 | 71 | 1019.5 |
| 20260906100015 | 20 | 117 | 4.8 | 9.7 | 0.00 | 0.00 | 0.00 | 72 | 1019.2 |
| 20260906094524 | 20 | 118 | 6.4 | 12.9 | 0.00 | 0.00 | 0.00 | 71 | 1019.3 |
| 20260906093012 | 21 | 108 | 6.4 | 14.5 | 0.00 | 0.00 | 0.00 | 71 | 1019.1 |
| 20260906091523 | 21 | 88 | 3.2 | 11.3 | 0.00 | 0.00 | 0.00 | 71 | 1019.1 |
| 20260906090008 | 21 | 133 | 3.2 | 12.9 | 0.00 | 0.00 | 0.00 | 71 | 1018.9 |
| 20260906084516 | 21 | 133 | 4.8 | 14.5 | 0.00 | 0.00 | 0.00 | 71 | 1018.6 |
| 20260906083009 | 21 | 128 | 4.8 | 8.0 | 0.00 | 0.00 | 0.00 | 71 | 1018.4 |
| 20260906081517 | 21 | 123 | 1.6 | 14.5 | 0.00 | 0.00 | 0.00 | 71 | 1018.5 |
| 20260906080004 | 21 | 102 | 6.4 | 11.3 | 0.00 | 0.00 | 0.00 | 70 | 1018.4 |
| 20260906074604 | 21 | 125 | 1.6 | 9.7 | 0.00 | 0.00 | 0.00 | 70 | 1018.5 |
| 20260906073002 | 21 | 135 | 4.8 | 11.3 | 0.00 | 0.00 | 0.00 | 70 | 1018.6 |
| 20260906071501 | 21 | 122 | 4.8 | 9.7 | 0.00 | 0.00 | 0.00 | 70 | 1018.6 |
| 20260906070000 | 21 | 85 | 3.2 | 6.4 | 0.00 | 0.00 | 0.00 | 70 | 1018.6 |
| 20260906064601 | 21 | 123 | 3.2 | 6.4 | 0.00 | 0.00 | 0.00 | 70 | 1018.6 |
| 20260906063102 | 21 | 115 | 3.2 | 11.3 | 0.00 | 0.00 | 0.00 | 70 | 1018.6 |
| 20260906061557 | 21 | 138 | 9.7 | 17.7 | 0.00 | 0.00 | 0.00 | 70 | 1018.3 |
| 20260906060054 | 21 | 73 | 3.2 | 9.7 | 0.00 | 0.00 | 0.00 | 69 | 1018.3 |
| 20260906054556 | 22 | 109 | 4.8 | 12.9 | 0.00 | 0.00 | 0.00 | 69 | 1018.1 |
| 20260906053051 | 22 | 96 | 1.6 | 8.0 | 0.00 | 0.00 | 0.00 | 68 | 1018.2 |
| 20260906051553 | 22 | 117 | 3.2 | 11.3 | 0.00 | 0.00 | 0.00 | 67 | 1018.1 |
| 20260906050110 | 22 | 105 | 3.2 | 11.3 | 0.00 | 0.00 | 0.00 | 67 | 1018.1 |
| 20260906044552 | 22 | 89 | 4.8 | 16.1 | 0.00 | 0.00 | 0.00 | 66 | 1018.2 |
| 20260906043057 | 22 | 61 | 1.6 | 11.3 | 0.00 | 0.00 | 0.00 | 66 | 1018.1 |
| 20260906041546 | 22 | 114 | 3.2 | 9.7 | 0.00 | 0.00 | 0.00 | 66 | 1018.0 |
| 20260906040047 | 23 | 102 | 4.8 | 11.3 | 0.00 | 0.00 | 0.00 | 66 | 1018.1 |
| 20260906034545 | 22 | 70 | 4.8 | 12.9 | 0.00 | 0.00 | 0.00 | 66 | 1017.8 |
| 20260906033045 | 22 | 53 | 4.8 | 8.0 | 0.00 | 0.00 | 0.00 | 66 | 1017.9 |
| 20260906031545 | 23 | 67 | 3.2 | 6.4 | 0.00 | 0.00 | 0.00 | 66 | 1017.8 |
| 20260906030043 | 23 | 77 | 3.2 | 6.4 | 0.00 | 0.00 | 0.00 | 66 | 1017.5 |
| 20260906024542 | 23 | 74 | 3.2 | 8.0 | 0.00 | 0.00 | 0.00 | 66 | 1017.0 |
| 20260906023042 | 23 | 69 | 3.2 | 8.0 | 0.00 | 0.00 | 0.00 | 66 | 1016.9 |
| 20260906021550 | 23 | 75 | 1.6 | 8.0 | 0.00 | 0.00 | 0.00 | 66 | 1016.7 |
| 20260906020041 | 24 | 74 | 3.2 | 11.3 | 0.00 | 0.00 | 0.00 | 66 | 1016.3 |
| 20260906014540 | 24 | 69 | 3.2 | 11.3 | 0.00 | 0.00 | 0.00 | 66 | 1015.8 |
| 20260906013040 | 25 | 64 | 3.2 | 6.4 | 0.00 | 0.00 | 0.00 | 66 | 1015.4 |
| 20260906011540 | 25 | 55 | 1.6 | 4.8 | 0.00 | 0.00 | 0.00 | 65 | 1015.4 |
| 20260906010042 | 26 | 49 | 3.2 | 4.8 | 0.00 | 0.00 | 0.00 | 65 | 1015.6 |
| 20260906004542 | 26 | 48 | 1.6 | 9.7 | 0.00 | 0.00 | 0.00 | 64 | 1015.9 |
| 20260906003038 | 26 | 34 | 6.4 | 9.7 | 0.00 | 0.00 | 0.00 | 64 | 1015.7 |
| 20260906001538 | 27 | 49 | 4.8 | 9.7 | 0.00 | 0.00 | 0.00 | 62 | 1015.8 |
| 20260906000036 | 27 | 78 | 1.6 | 4.8 | 0.00 | 0.00 | 0.00 | 62 | 1015.9 |
| 20260905234540 | 28 | 78 | 3.2 | 6.4 | 0.00 | 0.00 | 0.00 | 61 | 1015.8 |
| 20260905233036 | 28 | 70 | 3.2 | 8.0 | 0.00 | 0.00 | 0.00 | 59 | 1015.6 |
| 20260905231537 | 28 | 84 | 1.6 | 9.7 | 0.00 | 0.00 | 0.00 | 58 | 1015.6 |
| 20260905230035 | 29 | 86 | 3.2 | 9.7 | 0.00 | 0.00 | 0.00 | 58 | 1015.5 |
| 20260905224540 | 28 | 69 | 4.8 | 12.9 | 0.00 | 0.00 | 0.00 | 58 | 1015.4 |
| 20260905223036 | 29 | 74 | 3.2 | 9.7 | 0.00 | 0.00 | 0.00 | 57 | 1015.5 |
| 20260905221537 | 29 | 84 | 4.8 | 16.1 | 0.00 | 0.00 | 0.00 | 56 | 1015.5 |
| 20260905220033 | 29 | 67 | 6.4 | 14.5 | 0.00 | 0.00 | 0.00 | 56 | 1015.5 |
| 20260905214532 | 29 | 79 | 6.4 | 16.1 | 0.00 | 0.00 | 0.00 | 55 | 1015.2 |
| 20260905213031 | 30 | 85 | 12.9 | 20.9 | 0.00 | 0.00 | 0.00 | 52 | 1015.2 |
| 20260905211529 | 30 | 68 | 6.4 | 19.3 | 0.00 | 0.00 | 0.00 | 54 | 1015.0 |
| 20260905210040 | 30 | 134 | 12.9 | 30.6 | 0.00 | 0.00 | 0.00 | 55 | 1014.4 |
| 20260905204528 | 30 | 70 | 8.0 | 24.1 | 0.00 | 0.00 | 0.00 | 55 | 1014.7 |
| 20260905203028 | 30 | 123 | 8.0 | 24.1 | 0.00 | 0.00 | 0.00 | 55 | 1015.0 |
| 20260905201535 | 30 | 74 | 8.0 | 19.3 | 0.00 | 0.00 | 0.00 | 56 | 1015.4 |
| 20260905200033 | 30 | 98 | 9.7 | 19.3 | 0.00 | 0.00 | 0.00 | 57 | 1016.0 |
| 20260905194522 | 30 | 49 | 9.7 | 16.1 | 0.00 | 0.00 | 0.00 | 57 | 1016.2 |
| 20260905193027 | 30 | 50 | 9.7 | 20.9 | 0.00 | 0.00 | 0.00 | 56 | 1016.1 |
| 20260905191520 | 30 | 42 | 9.7 | 17.7 | 0.00 | 0.00 | 0.00 | 58 | 1016.5 |
| 20260905190018 | 29 | 34 | 14.5 | 20.9 | 0.00 | 0.00 | 0.00 | 59 | 1016.6 |
| 20260905184523 | 28 | 67 | 6.4 | 19.3 | 0.00 | 0.00 | 0.00 | 61 | 1017.1 |
| 20260905183025 | 28 | 53 | 8.0 | 19.3 | 0.00 | 0.00 | 0.00 | 60 | 1017.6 |
| 20260905181517 | 28 | 36 | 9.7 | 20.9 | 0.00 | 0.00 | 0.00 | 59 | 1017.7 |
| 20260905180015 | 28 | 65 | 9.7 | 17.7 | 0.00 | 0.00 | 0.00 | 60 | 1017.4 |
| 20260905174526 | 28 | 46 | 9.7 | 19.3 | 0.00 | 0.00 | 0.00 | 60 | 1017.7 |
| 20260905173008 | 28 | 51 | 8.0 | 16.1 | 0.00 | 0.00 | 0.00 | 60 | 1018.2 |
| 20260905171507 | 27 | 48 | 3.2 | 14.5 | 0.00 | 0.00 | 0.00 | 61 | 1018.5 |
| 20260905170003 | 27 | 50 | 6.4 | 14.5 | 0.00 | 0.00 | 0.00 | 61 | 1018.1 |
| 20260905164502 | 27 | 75 | 8.0 | 14.5 | 0.00 | 0.00 | 0.00 | 61 | 1017.9 |
| 20260905163002 | 27 | 20 | 4.8 | 14.5 | 0.00 | 0.00 | 0.00 | 61 | 1018.1 |
| 20260905161501 | 27 | 342 | 11.3 | 17.7 | 0.00 | 0.00 | 0.00 | 61 | 1018.0 |
| 20260905160104 | 27 | 36 | 8.0 | 16.1 | 0.00 | 0.00 | 0.00 | 61 | 1018.1 |
| 20260905154658 | 27 | 29 | 4.8 | 12.9 | 0.00 | 0.00 | 0.00 | 62 | 1018.0 |
| 20260905153056 | 27 | 30 | 6.4 | 12.9 | 0.00 | 0.00 | 0.00 | 61 | 1017.8 |
| 20260905151555 | 27 | 5 | 6.4 | 16.1 | 0.00 | 0.00 | 0.00 | 62 | 1017.6 |
| 20260905150052 | 26 | 336 | 4.8 | 11.3 | 0.00 | 0.00 | 0.00 | 63 | 1017.6 |
| 20260905144552 | 26 | 45 | 4.8 | 8.0 | 0.00 | 0.00 | 0.00 | 64 | 1017.5 |
| 20260905143047 | 25 | 333 | 3.2 | 8.0 | 0.00 | 0.00 | 0.00 | 66 | 1017.4 |
| 20260905141602 | 24 | 41 | 6.4 | 11.3 | 0.00 | 0.00 | 0.00 | 68 | 1017.3 |
| 20260905140053 | 23 | 44 | 6.4 | 12.9 | 0.00 | 0.00 | 0.00 | 70 | 1017.2 |
| 20260905134544 | 23 | 48 | 3.2 | 8.0 | 0.00 | 0.00 | 0.00 | 71 | 1017.1 |
| 20260905133050 | 22 | 41 | 1.6 | 6.4 | 0.00 | 0.00 | 0.00 | 72 | 1017.0 |
| 20260905131550 | 22 | 26 | 3.2 | 8.0 | 0.00 | 0.00 | 0.00 | 72 | 1017.1 |
| 20260905130033 | 22 | 43 | 3.2 | 9.7 | 0.00 | 0.00 | 0.00 | 72 | 1016.9 |